This demonstration page uses our WeatherBlox Daily Observations layout. Learn more.

Left ArrowRight Arrow

Hourly Observations for November 26, 2022

Temp ( °F °C ) Dew Point ( °F °C ) Humidity (%) Winds ( mph kmh ) Pressure ( in mb ) Visibility ( mi km ) Precip ( " mm )
12:52 am 00:52 Clear 38 3.3 34 1.1 85 85 ESE 5 7 30.17 1022 10 16 0.00 0.00
1:52 am 01:52 Clear 38 3.3 34 1.1 85 85 SE 5 7 30.16 1021 10 16 0.00 0.00
2:52 am 02:52 Clear 38 3.3 34 1.1 85 85 SSE 3 6 30.13 1020 10 16 0.00 0.00
3:52 am 03:52 Clear 34 1.1 32 0 92 92 SE 5 7 30.12 1020 10 16 0.00 0.00
4:52 am 04:52 Clear 36 2.2 32 0 85 85 ESE 5 7 30.09 1019 10 16 0.00 0.00
5:52 am 05:52 Clear 37 2.8 33 0.6 85 85 SSE 7 11 30.09 1019 10 16 0.00 0.00
6:52 am 06:52 Clear 38 3.3 34 1.1 85 85 SE 10 17 30.07 1018 10 16 0.00 0.00
7:58 am 07:58 Mostly Cloudy with Mist and Fog 39 3.9 37 2.8 93 93 SSE 12 19 30.08 1019 4 6 0.00 0.00
8:12 am 08:12 Cloudy with Mist and Fog 40 4.4 38 3.3 93 93 SSE 12 19 30.07 1018 2 3 0.00 0.00
8:19 am 08:19 Cloudy with Mist and Fog 39 3.9 38 3.3 96 96 S 12 19 30.08 1019 2 2 0.00 0.00
8:45 am 08:45 Cloudy with Mist and Fog 40 4.4 39 3.9 97 97 S 12 19 30.07 1018 2 3 0.00 0.00
8:52 am 08:52 Cloudy with Mist and Fog 40 4.4 39 3.9 97 97 SSE 14 22 30.05 1018 3 4 0.00 0.00
9:05 am 09:05 Cloudy with Mist and Fog 41 5 39 3.9 93 93 SSE 16 26 30.07 1018 2 3 0.00 0.00
9:17 am 09:17 Cloudy with Mist and Fog 41 5 39 3.9 93 93 SSE 15 24 30.07 1018 3 4 0.00 0.00
9:24 am 09:24 Cloudy with Mist and Fog 41 5 39 3.9 93 93 SSE 15 24 30.07 1018 3 5 0.00 0.00
9:35 am 09:35 Cloudy with Mist and Fog 42 5.6 40 4.4 92 92 SSE 12 19 30.05 1018 4 6 0.00 0.00
9:52 am 09:52 Mostly Cloudy with Mist and Fog 42 5.6 40 4.4 92 92 SSE 14 22 30.04 1017 5 8 0.00 0.00
10:42 am 10:42 Cloudy with Haze 45 7.2 40 4.4 82 82 SE 15 24 30.02 1016 6 10 0.00 0.00
10:52 am 10:52 Cloudy with Mist and Fog 45 7.2 41 5 86 86 SE 10 17 29.99 1016 6 10 0.00 0.00
11:52 am 11:52 Cloudy 47 8.3 42 5.6 83 83 SSE 9 15 29.94 1014 7 11 0.00 0.00
12:41 pm 12:41 Mostly Cloudy 49 9.4 43 6.1 80 80 SE 8 13 29.88 1012 8 13 0.00 0.00
12:52 pm 12:52 Mostly Cloudy 49 9.4 43 6.1 80 80 SSE 13 20 29.87 1012 8 13 0.00 0.00
1:13 pm 13:13 Cloudy 49 9.4 44 6.7 83 83 SE 8 13 29.86 1011 8 13 0.00 0.00
1:43 pm 13:43 Cloudy 50 10 44 6.7 80 80 SE 12 19 29.83 1010 8 13 0.00 0.00
1:52 pm 13:52 Cloudy 50 10 45 7.2 83 83 SE 14 22 29.82 1010 8 13 0.00 0.00
2:14 pm 14:14 Cloudy 51 10.6 45 7.2 79 79 SE 14 22 29.81 1009 8 13 0.00 0.00
2:45 pm 14:45 Cloudy 50 10 46 7.8 86 86 ESE 9 15 29.79 1009 8 13 0.00 0.00
2:52 pm 14:52 Cloudy 51 10.6 46 7.8 83 83 ESE 10 17 29.78 1008 8 13 0.00 0.00
3:01 pm 15:01 Cloudy 50 10 46 7.8 86 86 ESE 9 15 29.78 1009 8 13 0.00 0.00
3:52 pm 15:52 Cloudy with Light Rain 50 10 46 7.8 86 86 ESE 10 17 29.75 1008 5 8 0.01 0.13
4:34 pm 16:34 Cloudy with Heavy Rain 49 9.4 47 8.3 93 93 E 9 15 29.73 1007 2 3 0.08 2.03
4:52 pm 16:52 Cloudy with Rain 49 9.4 47 8.3 93 93 E 12 19 29.70 1006 3 4 0.14 3.56
5:02 pm 17:02 Cloudy with Rain 49 9.4 48 8.9 97 97 E 12 19 29.70 1006 3 5 0.03 0.76
5:09 pm 17:09 Cloudy with Light Rain 49 9.4 48 8.9 97 97 E 10 17 29.68 1005 3 5 0.04 1.02
5:52 pm 17:52 Cloudy with Light Rain 49 9.4 48 8.9 97 97 E 10 17 29.64 1004 5 8 0.06 1.52
6:01 pm 18:01 Cloudy with Light Rain 49 9.4 48 8.9 97 97 E 12 19 29.65 1004 6 10 0.01 0.13
6:52 pm 18:52 Cloudy with Light Rain 50 10 48 8.9 93 93 E 10 17 29.58 1002 5 8 0.01 0.25
7:16 pm 19:16 Cloudy with Rain 50 10 49 9.4 96 96 ESE 12 19 29.58 1002 2 3 0.04 1.02
7:39 pm 19:39 Cloudy with Heavy Rain 50 10 49 9.4 96 96 ESE 9 15 29.56 1001 4 6 0.22 5.59
8:01 pm 20:01 Cloudy with Heavy Rain 50 10 49 9.4 96 96 WSW 12 19 29.58 1002 2 3 0.17 4.32
8:08 pm 20:08 Cloudy with Heavy Rain 50 10 49 9.4 96 96 WSW 9 15 29.58 1002 3 4 0.23 5.84
8:23 pm 20:23 Cloudy with Heavy Rain 49 9.4 48 8.9 97 97 WSW 9 15 29.58 1002 3 5 0.34 8.64
8:38 pm 20:38 Cloudy with Heavy Rain 49 9.4 48 8.9 97 97 W 6 9 29.57 1001 3 4 0.42 10.67
8:52 pm 20:52 Cloudy with Heavy Rain 49 9.4 48 8.9 97 97 SSE 6 9 29.55 1001 2 3 0.55 13.97
9:00 pm 21:00 Cloudy with Heavy Rain 49 9.4 48 8.9 97 97 SE 6 9 29.55 1001 3 5 0.07 1.78
9:40 pm 21:40 Cloudy with Light Rain 49 9.4 48 8.9 97 97 Calm 29.54 1001 7 11 0.20 5.08
9:52 pm 21:52 Cloudy with Light Rain 49 9.4 48 8.9 97 97 ENE 3 6 29.52 1000 10 16 0.21 5.33
10:35 pm 22:35 Cloudy with Light Rain 49 9.4 47 8.3 93 93 Calm 29.52 1000 4 6 0.03 0.76
10:52 pm 22:52 Cloudy with Light Rain 48 8.9 48 8.9 100 100 SE 3 6 29.50 999 3 4 0.05 1.27
11:42 pm 23:42 Cloudy with Light Rain 48 8.9 47 8.3 96 96 Calm 29.48 998 3 5 0.07 1.78
11:52 pm 23:52 Cloudy with Light Rain 48 8.9 48 8.9 100 100 Calm 29.45 997 3 5 0.07 1.78

Powered by AerisWeather